Miscellaneous Local Product
Issued by NWS North Platte, NE

Current Version | Previous Version | Text Only | Print | Product List | Glossary On
Versions: 1 2 3 4 5 6 7 8 9 10 11 12 13 14 15 16 17 18 19 20 21 22 23 24 25 26 27 28 29 30 31 32 33 34 35 36 37 38 39 40 41 42 43 44 45 46 47 48 49 50
456
AXUS43 KLBF 071510
MISLBF


WESTERN AND NORTH CENTRAL NEBRASKA HOURLY WEATHER ROUNDUP
NATIONAL WEATHER SERVICE NORTH PLATTE NE
900 AM CST SUN FEB 07 2016

NOTE: "FAIR" INDICATES FEW OR NO CLOUDS BELOW 12,000 FEET WITH NO
SIGNIFICANT WEATHER AND/OR OBSTRUCTIONS TO VISIBILITY.

NOTE: STATIONS NOT REPORTING VARIABLES SUCH AS SKY/WEATHER OR
PRESSURE ARE PROVIDED BY THE NEBRASKA DEPARTMENT OF
ROADS...RAWS...AND APRS NETWORKS...AND ARE NOT UNDER
NATIONAL WEATHER SERVICE QUALITY CONTROL.

...OBSERVATIONS IN AND NEAR THE EASTERN PANHANDLE OF NEBRASKA...

CITY           SKY/WX    TMP DP  RH WIND       PRES   REMARKS
PINE RIDGE     CLEAR     32  16  51 NW8       30.17R WCI  25
CHADRON        CLOUDY    33  19  56 W14       30.20R WCI  23
ALLIANCE       CLOUDY    31  19  61 NW23G32   30.20R WCI  18
SIDNEY         CLOUDY    29  24  82 NW24      30.25R WCI  15
BIG SPRINGS      N/A     33  27  79 NW7         N/A  WCI  27
$$

...OBSERVATIONS IN NORTH CENTRAL NEBRASKA...

CITY           SKY/WX    TMP DP  RH WIND       PRES   REMARKS
VALENTINE      SUNNY     35  19  52 W21G28    30.08R WCI  24
THEDFORD       CLOUDY    37  24  60 NW13      30.13R WCI  29
AINSWORTH      SUNNY     37  20  52 W18G28    30.07R WCI  26
O`NEILL        SUNNY     38  24  55 NW21G30   30.02S WCI  28
ORD            MOSUNNY   39  22  50 NW21G28   30.07R WCI  29
BROKEN BOW     PTSUNNY   37  23  56 NW18      30.10R WCI  27
BUTTE            N/A     37  25  63 W26G35      N/A  WCI  25
CHAMBERS         N/A     38  22  52 W15         N/A  WCI  29
EWING            N/A     37  28  69 W14G21      N/A  WCI  28
$$

...OBSERVATIONS IN SOUTHWEST NEBRASKA AND FAR NORTHEAST COLORADO...

CITY           SKY/WX    TMP DP  RH WIND       PRES   REMARKS
WRAY           FAIR      28  18  67 NW9       30.25R WCI  19
HOLYOKE        PTSUNNY   34  25  69 NW23      30.25R WCI  22
IMPERIAL       CLOUDY    33  21  61 NW17      30.22R WCI  22
OGALLALA       CLOUDY    34  23  63 NW17      30.22R WCI  24
NORTH PLATTE   CLOUDY    33  24  69 W10       30.17R WCI  25
MCCOOK         CLOUDY    36  24  62 NW17      30.19R WCI  26
LEXINGTON      CLOUDY    34  25  69 NW14      30.15R WCI  24
PAXTON           N/A     34  27  76 W8          N/A  WCI  27
STAPLETON        N/A     34  26  72 CALM        N/A
GOTHENBURG       N/A     34  24  67 NW6         N/A  WCI  29
CALLAWAY         N/A     35  26  69 NW14        N/A  WCI  26
$$

...OBSERVATIONS IN CENTRAL LINCOLN COUNTY AREA...

CITY           SKY/WX    TMP DP  RH WIND       PRES   REMARKS
N.P. AIRPORT   CLOUDY    33  24  69 W10       30.17R WCI  25
N.P. DOWNTOWN    N/A     35  27  71 W6G16       N/A  WCI  30
N.P. SOUTHEAST   N/A     35  26  69 NW3G12      N/A
N.P. HILLCREST   N/A     36  27  71 NW9G17      N/A  WCI  29
$$

...SOME OBSERVATIONS FROM AROUND THE REGION...

CITY           SKY/WX    TMP DP  RH WIND       PRES   REMARKS
DENVER         PTCLDY    28  12  51 SE7       30.22R WCI  21
LARAMIE        CLEAR     24  16  71 W21       30.21R WCI   9
CHEYENNE       CLOUDY    23  17  78 N14       30.22R WCI  11
SCOTTSBLUFF    CLOUDY    30  23  75 NW20      30.27R WCI  17
RAPID CITY     CLEAR     35  11  36 NW49G59   30.11S WCI  19
BISMARCK       CLOUDY    35  23  61 NW25G47   29.82R WCI  23
PIERRE         MOCLDY    38  18  44 NW35G45   29.92S WCI  25
WINNER         FAIR      37  20  50 W21G36    29.99F WCI  26
SIOUX FALLS    CLOUDY    35  26  69 W16G23    29.84S WCI  25
OMAHA          MOSUNNY   40  25  55 NW17      29.98R WCI  31
GRAND ISLAND   CLOUDY    35  23  61 W16       30.09R WCI  25
KANSAS CITY    CLOUDY    39  28  64 W8        30.02R WCI  33
WICHITA        CLOUDY    40  28  62 NW8       30.12R WCI  34
OKLAHOMA CITY  PTSUNNY   38  30  73 SW12      30.16R WCI  30
LIBERAL        SUNNY     36  25  64 NW9       30.22R WCI  29
HAYS           PTSUNNY   36  23  60 W13       30.18R WCI  27
GOODLAND       SUNNY     26  15  63 NW14      30.23R WCI  14
$$




USA.gov is the U.S. government's official web portal to all federal, state and local government web resources and services.